Stations météo

réclame
Mon MeteoGroup
Llanes, Espagne (8016): Température de l'air & dewpoint: 16.10.2017 15:00:00 - 22.10.2017 15:00:00 (CEST)Llanes, Espagne (8016): Vitesse du vent & gusts: 16.10.2017 15:00:00 - 22.10.2017 15:00:00 (CEST)Llanes, Espagne (8016): Direction du vent: 16.10.2017 15:00:00 - 22.10.2017 15:00:00 (CEST)Llanes, Espagne (8016): reduced air pressure: 16.10.2017 15:00:00 - 22.10.2017 15:00:00 (CEST)Llanes, Espagne (8016): visibility: 16.10.2017 15:00:00 - 22.10.2017 15:00:00 (CEST)Llanes, Espagne (8016): Ensoleillement: 16.10.2017 15:00:00 - 22.10.2017 15:00:00 (CEST)Llanes, Espagne (8016): Quantités de précipitations: 16.10.2017 15:00:00 - 22.10.2017 15:00:00 (CEST)
Date & Time tt [°C] td [°C] ff [km/h] ff [knt] fx [km/h] fx [knt] dd ppp [hPa] vv [km] sd [min] rr [mm]
22.10.2017 15:00:00 17,1 8,3 19 10 29 16 NW 1028,8 15 27 0,0
22.10.2017 14:00:00 17,1 7,1 11 6 33 18 W 1029,4 20 22 -
22.10.2017 13:00:00 16,5 7,4 12 6 32 18 WNW 1030,1 20 0 0,0
22.10.2017 12:00:00 16,1 8,1 13 7 27 14 WNW 1030,3 8 0 0,0
22.10.2017 11:00:00 15,3 7,1 9 5 26 14 WNW 1030,0 19 0 0,0
22.10.2017 10:00:00 14,8 6,5 11 6 34 19 W 1029,7 20 0 0,0
22.10.2017 09:00:00 14,2 6,5 9 5 31 17 W 1029,3 20 0 0,0
22.10.2017 08:00:00 14,5 6,5 12 6 24 13 W 1029,3 20 0 -
22.10.2017 07:00:00 14,7 6,2 13 7 25 13 W 1028,9 20 0 0,0
22.10.2017 06:00:00 14,1 7,1 9 5 30 16 WSW 1028,2 20 0 0,0
22.10.2017 05:00:00 14,2 7,4 11 6 27 15 WNW 1028,5 20 0 0,0
22.10.2017 04:00:00 14,1 7,6 6 3 28 15 W 1028,4 16 0 0,0
22.10.2017 03:00:00 14,7 8,0 10 6 24 13 W 1028,4 20 0 0,0
22.10.2017 02:00:00 14,6 8,1 14 7 26 14 W 1028,8 20 0 -
22.10.2017 01:00:00 14,9 8,4 14 8 29 16 W 1028,7 20 0 0,0
22.10.2017 00:00:00 14,9 8,8 10 5 29 15 W 1028,6 18 0 0,0
21.10.2017 23:00:00 15,3 8,9 11 6 25 13 WNW 1028,1 14 0 0,0
21.10.2017 22:00:00 15,2 8,4 7 4 33 18 W 1027,9 20 0 0,0
21.10.2017 21:00:00 15,9 8,9 15 8 31 17 W 1027,9 20 0 0,0
21.10.2017 20:00:00 16,1 8,5 12 6 36 20 W 1027,3 20 0 -
21.10.2017 19:00:00 16,6 9,0 19 10 41 22 WNW 1026,6 16 0 0,0
21.10.2017 18:00:00 16,8 8,8 20 11 42 23 WNW 1026,2 17 0 0,0
21.10.2017 17:00:00 17,3 9,4 18 10 41 22 W 1025,8 20 17 0,0
21.10.2017 16:00:00 17,6 10,2 26 14 61 33 WNW 1025,2 15 45 0,0
21.10.2017 15:00:00 18,1 9,9 27 15 57 31 WNW 1024,6 16 50 0,0
21.10.2017 14:00:00 19,1 9,3 26 14 46 25 NW 1024,3 17 60 -
21.10.2017 13:00:00 19,4 6,1 19 11 35 19 WNW 1024,3 20 60 0,0
21.10.2017 12:00:00 18,8 5,9 18 10 42 23 WNW 1023,9 20 59 0,0
21.10.2017 11:00:00 18,3 8,0 16 8 27 15 WNW 1023,6 20 60 0,0
21.10.2017 10:00:00 16,5 8,0 13 7 31 17 W 1023,0 20 22 0,0
21.10.2017 09:00:00 15,3 8,8 9 5 24 13 W 1022,2 20 0 0,0
21.10.2017 08:00:00 15,4 12,0 7 4 22 12 W 1021,8 20 0 -
21.10.2017 07:00:00 14,9 11,9 7 4 26 14 WSW 1021,0 20 0 0,0
21.10.2017 06:00:00 15,2 12,3 12 7 39 21 WSW 1020,5 12 0 0,8
21.10.2017 05:00:00 15,9 13,4 17 9 42 23 W 1019,8 10 0 0,6
21.10.2017 04:00:00 16,7 13,8 7 4 16 9 SW 1019,1 20 0 0,0
21.10.2017 03:00:00 16,6 13,9 7 4 48 26 W 1018,7 16 0 0,0
21.10.2017 02:00:00 17,5 14,6 20 11 56 31 WNW 1018,4 11 0 -
21.10.2017 01:00:00 16,4 13,7 14 8 26 14 W 1016,0 20 0 0,0
21.10.2017 00:00:00 15,8 13,1 6 3 15 8 W 1014,3 20 0 0,0
20.10.2017 23:00:00 16,2 13,5 9 5 22 12 WSW 1014,0 20 0 0,0
20.10.2017 22:00:00 16,3 13,6 10 5 17 9 WSW 1013,5 20 0 0,0
20.10.2017 21:00:00 16,6 13,7 10 5 16 9 WSW 1013,8 15 0 0,0
20.10.2017 20:00:00 17,9 14,4 4 2 14 8 WSW 1013,4 17 0 -
20.10.2017 19:00:00 18,8 14,9 13 7 31 17 ESE 1013,4 7 25 0,0
20.10.2017 18:00:00 19,2 14,0 21 12 33 18 ESE 1013,8 16 0 0,0
20.10.2017 17:00:00 19,5 14,1 17 9 29 16 ESE 1014,5 20 15 0,0
20.10.2017 16:00:00 20,1 14,9 12 6 25 14 ESE 1015,1 17 60 0,0
20.10.2017 15:00:00 20,5 14,6 10 6 16 9 ESE 1015,8 20 60 0,0
20.10.2017 14:00:00 20,3 15,3 10 5 16 9 E 1016,1 20 60 -
20.10.2017 13:00:00 19,8 15,9 4 2 6 3 E 1016,6 20 60 0,2
20.10.2017 12:00:00 19,4 15,9 3 2 6 3 ENE 1016,5 20 60 0,0
20.10.2017 11:00:00 18,7 16,1 2 1 4 2 E 1016,4 16 60 0,0
20.10.2017 10:00:00 16,4 14,6 2 1 16 9 S 1016,1 13 2 0,0
20.10.2017 09:00:00 15,9 14,0 1 1 11 6 S 1015,5 8 0 0,0
20.10.2017 08:00:00 15,8 13,9 5 3 19 10 S 1015,3 20 0 -
20.10.2017 07:00:00 16,1 14,1 3 2 14 8 W 1015,5 3,3 0 0,8
20.10.2017 06:00:00 16,4 14,4 2 1 13 7 N 1015,1 1,2 0 2,0
20.10.2017 05:00:00 16,5 14,3 0 0 17 9 N 1014,9 1,7 0 1,2
20.10.2017 04:00:00 16,5 14,3 7 4 23 13 WNW 1014,8 1,8 0 2,0
20.10.2017 03:00:00 17,1 14,7 8 4 23 13 WNW 1014,6 3,8 0 0,0
20.10.2017 02:00:00 17,5 14,4 13 7 23 12 W 1014,3 20 0 -
20.10.2017 01:00:00 17,3 14,2 6 4 11 6 SW 1014,2 20 0 0,0
20.10.2017 00:00:00 17,5 13,9 2 1 14 8 SW 1013,4 20 0 0,0
19.10.2017 23:00:00 17,8 13,4 4 2 19 10 WSW 1012,9 20 0 0,0
19.10.2017 22:00:00 17,8 13,1 4 2 10 5 E 1011,3 16 0 0,0
19.10.2017 21:00:00 17,9 13,2 5 3 16 9 WSW 1010,9 20 0 0,0
19.10.2017 20:00:00 18,0 13,3 7 4 12 7 W 1010,1 20 0 -
19.10.2017 19:00:00 18,7 13,8 4 2 16 8 SE 1009,2 17 0 0,0
19.10.2017 18:00:00 18,7 13,4 10 5 21 11 ESE 1009,1 20 0 0,0
19.10.2017 17:00:00 19,0 13,2 12 6 23 12 E 1009,1 20 20 0,0
19.10.2017 16:00:00 18,9 11,9 13 7 20 11 E 1008,8 20 36 0,0
19.10.2017 15:00:00 18,7 11,0 15 8 27 15 E 1009,4 20 50 0,0
19.10.2017 14:00:00 19,0 10,3 15 8 23 13 E 1010,3 20 50 -
19.10.2017 13:00:00 19,4 10,2 13 7 21 11 ESE 1010,6 20 60 0,0
19.10.2017 12:00:00 19,4 10,9 3 2 8 5 ESE 1011,1 20 60 0,0
19.10.2017 11:00:00 17,4 10,8 1 1 15 8 SW 1011,3 20 58 0,0
19.10.2017 10:00:00 14,4 9,2 2 1 14 7 SSW 1010,7 20 60 0,0
19.10.2017 09:00:00 11,3 7,0 6 3 23 12 S 1010,3 20 1 0,0
19.10.2017 08:00:00 11,5 7,3 10 6 24 13 SW 1010,0 20 0 -
19.10.2017 07:00:00 12,2 7,3 6 3 23 12 SW 1010,5 20 0 0,0
19.10.2017 06:00:00 12,3 7,4 9 5 24 13 WSW 1010,4 20 0 0,0
19.10.2017 05:00:00 12,0 7,3 9 5 24 13 SW 1010,8 20 0 0,0
19.10.2017 04:00:00 12,6 7,7 8 4 22 12 WSW 1010,9 20 0 0,0
19.10.2017 03:00:00 13,1 8,0 8 4 23 12 WSW 1010,9 20 0 0,0
19.10.2017 02:00:00 13,4 8,3 9 5 24 13 W 1010,5 20 0 -
19.10.2017 01:00:00 13,8 8,4 7 4 23 13 WSW 1010,9 20 0 0,0
19.10.2017 00:00:00 13,9 8,8 7 4 24 13 WSW 1011,1 20 0 0,0
18.10.2017 23:00:00 14,2 9,0 8 5 22 12 W 1011,2 20 0 0,0
18.10.2017 22:00:00 13,8 8,8 7 4 21 12 WSW 1011,2 20 0 0,0
18.10.2017 21:00:00 14,2 8,7 7 4 22 12 WSW 1010,9 20 0 0,0
18.10.2017 20:00:00 14,9 8,8 6 3 22 12 W 1010,3 20 0 -
18.10.2017 19:00:00 15,0 8,9 8 4 27 14 W 1010,1 20 0 0,0
18.10.2017 18:00:00 14,7 9,0 11 6 32 17 WSW 1010,0 20 0 0,0
18.10.2017 17:00:00 15,9 10,6 9 5 26 14 W 1010,0 20 0 0,0
18.10.2017 16:00:00 15,8 11,0 13 7 24 13 W 1009,9 20 0 0,0
18.10.2017 15:00:00 15,5 11,3 13 7 29 16 W 1010,0 20 0 0,4
18.10.2017 14:00:00 15,7 11,7 11 6 23 13 W 1010,0 20 0 -
18.10.2017 13:00:00 15,1 11,9 11 6 27 15 W 1009,9 20 0 0,8
18.10.2017 12:00:00 15,8 13,1 11 6 22 12 WNW 1009,7 14 0 0,4
18.10.2017 11:00:00 16,0 13,3 2 1 13 7 NW 1009,2 16 0 0,0
18.10.2017 10:00:00 15,4 12,8 6 3 13 7 SSW 1008,8 17 0 0,0
18.10.2017 09:00:00 15,3 12,7 5 3 18 10 SSW 1008,5 13 0 0,0
18.10.2017 08:00:00 14,9 12,4 3 2 13 7 WSW 1008,7 13 0 -
18.10.2017 07:00:00 14,9 12,4 8 4 16 9 SW 1008,9 15 0 0,0
18.10.2017 06:00:00 14,9 12,2 8 4 18 10 SSW 1009,7 15 0 0,0
18.10.2017 05:00:00 14,9 12,0 5 3 16 8 S 1010,2 16 0 0,0
18.10.2017 04:00:00 14,5 11,7 5 3 16 8 SE 1010,9 10 0 0,0
18.10.2017 03:00:00 14,3 11,2 2 1 8 4 SW 1011,8 20 0 0,0
18.10.2017 02:00:00 14,0 11,0 4 2 18 10 W 1012,5 20 0 -
18.10.2017 01:00:00 14,4 11,0 2 1 17 9 S 1013,1 13 0 0,0
18.10.2017 00:00:00 14,7 11,9 3 1 15 8 S 1013,8 15 0 0,0
17.10.2017 23:00:00 15,2 12,3 4 2 12 6 SW 1014,2 20 0 0,0
17.10.2017 22:00:00 16,0 12,7 5 3 9 5 SW 1014,5 20 0 0,0
17.10.2017 21:00:00 16,2 12,7 5 3 18 10 SSW 1014,4 20 0 0,0
17.10.2017 20:00:00 16,4 13,4 5 3 12 7 WSW 1014,6 20 0 -
17.10.2017 19:00:00 16,9 13,7 5 3 10 5 WSW 1014,2 14 0 0,2
17.10.2017 18:00:00 17,4 13,4 6 3 11 6 WSW 1014,8 12 0 0,0
17.10.2017 17:00:00 17,5 13,3 4 2 12 6 W 1014,7 17 0 0,0
17.10.2017 16:00:00 17,6 13,8 6 4 22 12 W 1014,7 12 0 0,0
17.10.2017 15:00:00 17,8 14,1 11 6 29 16 W 1015,3 6 0 0,0
17.10.2017 14:00:00 18,3 14,8 18 10 32 17 WNW 1015,2 4,7 0 -
17.10.2017 13:00:00 17,8 14,7 2 1 13 7 SW 1014,7 3,1 0 0,0
17.10.2017 12:00:00 17,6 14,7 4 2 13 7 NNW 1014,4 4,6 0 0,0
17.10.2017 11:00:00 17,5 15,0 7 4 36 19 W 1015,0 6 0 0,0
17.10.2017 10:00:00 16,6 13,9 4 2 12 7 WSW 1014,1 15 0 0,0
17.10.2017 09:00:00 16,3 13,8 5 3 13 7 SW 1013,5 17 0 0,0
17.10.2017 08:00:00 16,3 13,8 6 3 14 8 SW 1013,7 18 0 -
17.10.2017 07:00:00 16,1 13,6 7 4 39 21 SW 1014,4 17 0 0,0
17.10.2017 06:00:00 16,0 13,5 9 5 14 8 WSW 1014,8 16 0 0,0
17.10.2017 05:00:00 16,2 13,5 6 4 10 6 WSW 1015,6 16 0 0,0
17.10.2017 04:00:00 16,9 13,9 2 1 11 6 S 1016,7 5 0 0,0
17.10.2017 03:00:00 17,1 14,0 3 2 10 6 SSW 1017,9 11 0 0,0
17.10.2017 02:00:00 17,6 14,5 3 1 12 6 S 1018,9 16 0 -
17.10.2017 01:00:00 17,6 14,3 6 3 14 7 SSE 1019,9 14 0 0,0
17.10.2017 00:00:00 17,8 14,9 9 5 25 13 SE 1020,6 8 0 0,0
16.10.2017 23:00:00 17,9 14,6 11 6 28 15 ESE 1021,1 9 0 0,0
16.10.2017 22:00:00 17,8 14,3 21 11 33 18 E 1021,5 14 0 0,0
16.10.2017 21:00:00 18,1 14,2 16 9 27 15 E 1021,8 11 0 0,0
16.10.2017 20:00:00 18,3 13,9 6 3 11 6 ESE 1022,4 8 0 -
16.10.2017 19:00:00 18,8 14,2 3 2 8 5 SE 1022,8 5 0 0,0
16.10.2017 18:00:00 18,8 13,7 5 3 11 6 W 1022,9 13 0 0,0
16.10.2017 17:00:00 19,0 13,7 8 4 13 7 NW 1022,7 12 0 0,0
16.10.2017 16:00:00 19,3 13,5 8 4 15 8 NW 1022,8 14 0 0,0
16.10.2017 15:00:00 19,6 13,3 10 5 16 8 NW 1022,7 14 0 0,0

tt = Température de l'air
td = dewpoint
ff = Vitesse du vent
fx = gusts
dd = Direction du vent
ppp = reduced air pressure
vv = visibility
sd = Ensoleillement
rr = Quantités de précipitations

stations d'obs. à proximité